Location: Byszew
(52.1813°N, 19.2693°E)
Time: 22:19:32
(UTC+00:00)

Cosmos 2322 Rocket - Pass Details

Date: 30 June 2021
Orbit: 833 x 850 km, 71.0° (Epoch: 26 July)

Event Time Altitude Azimuth Distance (km) Brightness Sun altitude
Rises 23:34:57 0° 327° (NNW) 3,424 6.1 -14.0°
Reaches altitude 10° 23:38:11 10° 345° (NNW) 2,483 5.7 -13.9°
Maximum altitude 23:42:10 19° 30° (NNE) 1,915 5.1 -13.7°
Drops below altitude 10° 23:46:08 10° 74° (ENE) 2,469 5.0 -13.6°
Sets 23:49:20 0° 92° (E) 3,398 5.5 -13.5°
